Weather History for Eastover, SC

Change the Weather History Date:

Wednesday, October 16, 2013

  Actual Average Record
Temperature  
Mean Temperature 65 °F -  
Max Temperature 77 °F 72 °F 86 °F (2008)
Min Temperature 53 °F 50 °F 41 °F (2003)
Growing Degree Days 15 (Base 50)    
Moisture  
Dew Point 58 °F    
Average Humidity 83    
Maximum Humidity 100    
Minimum Humidity 52    
Precipitation  
Precipitation 0.00 in - - ()
Sea Level Pressure  
Sea Level Pressure 30.04 in    
Wind  
Wind Speed 2 mph (NW)    
Max Wind Speed 5 mph    
Max Gust Speed -    
Visibility 10 miles    
Events      
Averages and records for this station are not official NWS values.
T = Trace of Precipitation, MM = Missing Value Source: NWS Daily Summary

Daily Weather History Graph

Daily Weather History Graph

Search for Another Location

Airport:

Trip Planner

Search our weather history database for the weather conditions in past years. The results will help you decide how hot, cold, wet, or windy it might be!

Date:

Astronomy

Oct. 16, 2013 Rise Set
Actual Time 7:29 AM EDT 6:47 PM EDT
Civil Twilight 7:03 AM EDT 7:12 PM EDT
Nautical Twilight 6:34 AM EDT 7:41 PM EDT
Astronomical Twilight 6:05 AM EDT 8:10 PM EDT
Moon 5:21 PM EDT (10/16) 5:01 AM EDT (10/16)
Length of Visible Light 12h 08m
Length of Day
11h 18m
Waxing Gibbous, 94% of the Moon is Illuminated
Oct 16
Waxing Gibbous
Oct 18
Full
Oct 26
Last Quarter
Nov 3
New
Nov 10
First Quarter

Hourly Weather History & Observations

Time (EDT) Temp. Dew Point Humidity Pressure Visibility Wind Dir Wind Speed Gust Speed Precip Events Conditions
12:58 AM 56.3 °F 53.1 °F 89% 30.07 in 10.0 mi WNW 4.6 mph - N/A   Clear
1:58 AM 55.0 °F 52.9 °F 92% 30.06 in 10.0 mi NNW 2.3 mph - N/A   Clear
2:58 AM 54.7 °F 52.9 °F 94% 30.05 in 10.0 mi NW 3.5 mph - N/A   Clear
3:58 AM 55.2 °F 53.4 °F 94% 30.03 in 10.0 mi West 1.2 mph - N/A   Clear
4:58 AM 55.2 °F 53.8 °F 95% 30.03 in 10.0 mi Calm Calm - N/A   Clear
5:58 AM 54.1 °F 53.2 °F 97% 30.04 in 10.0 mi WNW 1.2 mph - N/A   Scattered Clouds
6:58 AM 54.3 °F 53.6 °F 97% 30.05 in 10.0 mi NW 4.6 mph - N/A   Scattered Clouds
7:58 AM 53.8 °F 53.6 °F 99% 30.06 in 10.0 mi Calm Calm - N/A   Partly Cloudy
8:28 AM 55.4 °F 55.4 °F 100% 30.05 in 10.0 mi Calm Calm - N/A   Mostly Cloudy
8:48 AM 59.0 °F 57.2 °F 94% 30.05 in 10.0 mi Calm Calm - N/A   Mostly Cloudy
8:58 AM 58.8 °F 57.7 °F 96% 30.07 in 10.0 mi Calm Calm - N/A   Mostly Cloudy
9:08 AM 59.0 °F 59.0 °F 100% 30.06 in 10.0 mi Calm Calm - N/A   Mostly Cloudy
9:58 AM 65.1 °F 60.8 °F 86% 30.09 in 10.0 mi NE 2.3 mph - N/A   Mostly Cloudy
10:32 AM 66.2 °F 60.8 °F 83% 30.07 in 10.0 mi Variable 3.5 mph - N/A   Mostly Cloudy
10:58 AM 67.6 °F 60.4 °F 78% 30.08 in 10.0 mi North 3.5 mph - N/A   Mostly Cloudy
11:28 AM 68.0 °F 60.8 °F 78% 30.06 in 10.0 mi Variable 1.2 mph - N/A   Scattered Clouds
11:39 AM 71.6 °F 60.8 °F 69% 30.06 in 10.0 mi Calm Calm - N/A   Scattered Clouds
11:54 AM 69.8 °F 60.8 °F 73% 30.06 in 10.0 mi Variable 1.2 mph - N/A   Mostly Cloudy
12:58 PM 73.9 °F 59.4 °F 60% 30.05 in 10.0 mi Variable 4.6 mph - N/A   Mostly Cloudy
1:58 PM 76.8 °F 59.9 °F 56% 30.01 in 10.0 mi Variable 3.5 mph - N/A   Mostly Cloudy
2:58 PM 77.0 °F 58.3 °F 52% 29.99 in 10.0 mi Calm Calm - N/A   Mostly Cloudy
3:58 PM 77.2 °F 59.0 °F 53% 29.99 in 10.0 mi Variable 2.3 mph - N/A   Scattered Clouds
4:58 PM 77.0 °F 59.0 °F 54% 29.98 in 10.0 mi Variable 3.5 mph - N/A   Scattered Clouds
5:58 PM 75.7 °F 59.7 °F 57% 29.99 in 10.0 mi SSW 2.3 mph - N/A   Scattered Clouds
6:58 PM 69.1 °F 62.6 °F 80% 29.99 in 10.0 mi Calm Calm - N/A   Scattered Clouds
7:58 PM 65.7 °F 61.7 °F 87% 30.00 in 10.0 mi ENE 1.2 mph - N/A   Scattered Clouds
8:58 PM 64.2 °F 61.5 °F 91% 30.00 in 10.0 mi Calm Calm - N/A   Scattered Clouds
9:58 PM 63.1 °F 61.9 °F 96% 30.01 in 10.0 mi Calm Calm - N/A   Mostly Cloudy
10:58 PM 63.7 °F 61.9 °F 94% 30.01 in 10.0 mi Calm Calm - N/A   Overcast
11:58 PM 64.2 °F 62.2 °F 93% 30.00 in 10.0 mi Calm Calm - N/A   Mostly Cloudy